Overview Statistics Trail Chart Weather Telemetry Raw packets
 

This is the latest recevied weather packets stored in our database for station/object JA7ZQY-10. If no packets are shown the sender has not sent any weather packets the latest 10 day(s).

<< 4 5 6 7 8 9 10 >>
Time Temp. Humidity Pressure Rain* Wind** Luminosity Snow
1788495970 24.44° C 55% 1012.5 hPa 0 mm - - -
1788495369 25.56° C 52% 1012.5 hPa 0 mm - - -
1788494769 25.56° C 52% 1012.3 hPa 0 mm - - -
1788494170 25.56° C 52% 1012.5 hPa 0 mm - - -
1788493569 25.56° C 51% 1012.5 hPa 0 mm - - -
1788492969 25.56° C 51% 1012.8 hPa 0 mm - - -
1788492368 25.56° C 52% 1012.3 hPa 0 mm - - -
1788491768 25.56° C 50% 1012.2 hPa 0 mm - - -
1788491167 25.56° C 50% 1012.2 hPa 0 mm - - -
1788490569 27.22° C 48% 1012.4 hPa 0 mm - - -
1788489968 26.67° C 48% 1012.4 hPa 0 mm - - -
1788489368 26.11° C 50% 1012.5 hPa 0 mm - - -
1788488767 26.11° C 52% 1012.7 hPa 0 mm - - -
1788488169 25° C 55% 1012.7 hPa 0 mm - - -
1788487568 26.11° C 52% 1012.6 hPa 0 mm - - -
1788486967 26.11° C 53% 1012.5 hPa 0 mm - - -
1788486369 25° C 54% 1012.5 hPa 0 mm - - -
1788485768 25° C 55% 1012.7 hPa 0 mm - - -
1788485168 25.56° C 55% 1012.7 hPa 0 mm - - -
1788484569 25.56° C 54% 1012.8 hPa 0 mm - - -
1788483968 25.56° C 55% 1012.5 hPa 0 mm - - -
1788483369 25° C 58% 1012.6 hPa 0 mm - - -
1788482768 24.44° C 58% 1012.6 hPa 0 mm - - -
1788482168 25.56° C 60% 1012.6 hPa 0 mm - - -
1788481567 24.44° C 62% 1012.5 hPa 1.78 mm - - -

* Rain latest hour (hover to see other rain measurements)
** Current wind speed in m/s (hover to see current wind gust speed)